TimeCST,TemperatureF,Dew PointF,Humidity,Sea Level PressureIn,VisibilityMPH,Wind Direction,Wind SpeedMPH,Gust SpeedMPH,PrecipitationIn,Events,Conditions,WindDirDegrees,DateUTC
12:55 AM,43.2,37.4,80,30.24,10.0,NE,6.9,-,N/A,,Clear,50,2013-01-08 06:55:00
1:55 AM,43.2,37.4,80,30.24,10.0,NE,6.9,-,N/A,,Clear,50,2013-01-08 07:55:00
2:55 AM,42.6,37.0,81,30.23,10.0,NE,6.9,-,N/A,,Clear,50,2013-01-08 08:55:00
3:55 AM,42.8,37.4,81,30.23,10.0,NE,5.8,-,N/A,,Scattered Clouds,50,2013-01-08 09:55:00
4:01 AM,42.8,37.4,81,30.23,10.0,ENE,5.8,-,N/A,,Mostly Cloudy,60,2013-01-08 10:01:00
4:24 AM,44.6,37.4,76,30.23,10.0,NE,6.9,-,N/A,,Scattered Clouds,50,2013-01-08 10:24:00
4:55 AM,44.6,37.8,77,30.24,10.0,ENE,4.6,-,N/A,,Overcast,60,2013-01-08 10:55:00
5:29 AM,44.6,37.4,76,30.25,10.0,ENE,4.6,-,N/A,,Overcast,60,2013-01-08 11:29:00
5:55 AM,45.7,38.7,76,30.25,10.0,NE,5.8,-,N/A,,Overcast,50,2013-01-08 11:55:00
6:55 AM,46.9,39.6,76,30.28,10.0,ENE,4.6,-,N/A,,Overcast,60,2013-01-08 12:55:00
7:47 AM,48.2,41.0,76,30.29,10.0,ENE,5.8,-,N/A,,Overcast,60,2013-01-08 13:47:00
7:48 AM,48.2,41.0,76,30.29,10.0,ENE,6.9,-,N/A,,Overcast,70,2013-01-08 13:48:00
7:55 AM,49.1,40.6,73,30.29,10.0,ENE,8.1,-,N/A,,Overcast,70,2013-01-08 13:55:00
8:55 AM,51.3,41.5,69,30.30,10.0,ENE,8.1,-,N/A,,Overcast,60,2013-01-08 14:55:00
9:31 AM,53.6,42.8,67,30.30,10.0,ENE,8.1,-,N/A,,Mostly Cloudy,60,2013-01-08 15:31:00
9:47 AM,55.4,44.6,67,30.30,10.0,East,8.1,-,N/A,,Mostly Cloudy,80,2013-01-08 15:47:00
9:54 AM,57.2,44.6,63,30.30,10.0,East,10.4,-,N/A,,Mostly Cloudy,80,2013-01-08 15:54:00
9:55 AM,56.5,44.2,64,30.30,10.0,East,10.4,-,N/A,,Mostly Cloudy,80,2013-01-08 15:55:00
10:10 AM,57.2,44.6,63,30.30,10.0,East,9.2,-,N/A,,Mostly Cloudy,90,2013-01-08 16:10:00
10:55 AM,58.8,46.4,63,30.28,10.0,East,5.8,-,N/A,,Overcast,90,2013-01-08 16:55:00
11:08 AM,59.0,46.4,63,30.28,10.0,Calm,Calm,-,N/A,,Overcast,0,2013-01-08 17:08:00
11:22 AM,59.0,48.2,67,30.27,10.0,Variable,3.5,-,N/A,,Overcast,0,2013-01-08 17:22:00
11:50 AM,60.8,48.2,63,30.26,10.0,NE,6.9,-,N/A,,Overcast,50,2013-01-08 17:50:00
11:55 AM,61.0,47.8,62,30.25,10.0,NE,6.9,-,N/A,,Overcast,50,2013-01-08 17:55:00
12:55 PM,64.4,50.4,60,30.23,10.0,NE,4.6,-,N/A,,Overcast,50,2013-01-08 18:55:00
1:55 PM,66.6,51.4,58,30.22,10.0,NE,8.1,-,N/A,,Mostly Cloudy,40,2013-01-08 19:55:00
2:44 PM,66.2,51.8,60,30.21,10.0,NE,5.8,-,N/A,,Mostly Cloudy,50,2013-01-08 20:44:00
2:53 PM,68.0,53.6,60,30.20,10.0,NE,11.5,-,N/A,,Mostly Cloudy,50,2013-01-08 20:53:00
2:55 PM,67.1,52.9,60,30.20,10.0,NE,10.4,-,N/A,,Mostly Cloudy,50,2013-01-08 20:55:00
3:08 PM,66.2,53.6,64,30.21,10.0,ENE,5.8,-,N/A,,Mostly Cloudy,60,2013-01-08 21:08:00
3:17 PM,66.2,53.6,64,30.21,10.0,ENE,9.2,-,N/A,,Mostly Cloudy,60,2013-01-08 21:17:00
3:55 PM,65.8,53.1,63,30.21,10.0,NE,6.9,-,N/A,,Overcast,40,2013-01-08 21:55:00
4:55 PM,63.1,53.4,71,30.22,10.0,NE,4.6,-,N/A,,Overcast,40,2013-01-08 22:55:00
5:55 PM,63.3,53.8,71,30.22,10.0,NE,5.8,-,N/A,,Overcast,50,2013-01-08 23:55:00
6:55 PM,61.2,53.2,75,30.23,10.0,ENE,5.8,-,N/A,,Mostly Cloudy,60,2013-01-09 00:55:00
7:55 PM,58.6,52.9,81,30.24,10.0,NE,8.1,-,N/A,,Clear,50,2013-01-09 01:55:00
8:55 PM,58.1,52.3,81,30.24,10.0,NE,9.2,-,N/A,,Partly Cloudy,50,2013-01-09 02:55:00
9:55 PM,57.6,51.3,79,30.24,10.0,ENE,9.2,-,N/A,,Clear,60,2013-01-09 03:55:00
10:55 PM,57.7,51.6,80,30.25,10.0,ENE,9.2,-,N/A,,Mostly Cloudy,60,2013-01-09 04:55:00
10:57 PM,57.2,51.8,82,30.24,10.0,ENE,9.2,-,N/A,,Mostly Cloudy,60,2013-01-09 04:57:00
11:24 PM,57.2,51.8,82,30.25,10.0,NE,8.1,-,N/A,,Mostly Cloudy,50,2013-01-09 05:24:00
11:55 PM,58.6,52.7,81,30.25,10.0,ENE,8.1,-,N/A,,Overcast,70,2013-01-09 05:55:00